EW4271 Weather Reports


time (UTC)temp
F
wind
direction
speed
knots
gust
knots
rain 1hr
in
rain 24hr
in
rain mn
in
humidity
%
barometer
mb
20240420171030 50 114 0.9 5.2 0.00 0.00 0.00 61 1024.1
20240420170523 50 286 0.9 5.2 0.00 0.00 0.00 61 1024.1
20240420170021 50 36 1.7 5.2 0.00 0.00 0.00 60 1024.1
20240420165515 50 318 1.7 6.1 0.00 0.00 0.00 62 1024.1
20240420165027 50 145 1.7 4.3 0.00 0.00 0.00 63 1024.1
20240420164521 49 123 0.9 5.2 0.00 0.00 0.00 64 1024.2
20240420164054 49 335 2.6 7.0 0.00 0.00 0.00 65 1024.3
20240420163525 48 329 2.6 7.0 0.00 0.00 0.00 65 1024.3
20240420163039 48 31 1.7 7.0 0.00 0.00 0.00 65 1024.2
20240420162532 48 152 0.9 6.1 0.00 0.00 0.00 67 1024.1
20240420162025 47 297 1.7 6.1 0.00 0.00 0.00 67 1024.3
20240420161539 46 355 1.7 6.1 0.00 0.00 0.00 68 1024.3
20240420161032 46 304 2.6 8.7 0.00 0.00 0.00 68 1024.4
20240420160530 46 298 2.6 8.7 0.00 0.00 0.00 68 1024.4
20240420160024 46 9 2.6 8.7 0.00 0.00 0.00 68 1024.5
20240420155518 46 160 0.9 6.1 0.00 0.00 0.00 70 1024.4
20240420155031 45 82 0.9 7.8 0.00 0.00 0.00 72 1024.3
20240420154525 44 313 2.6 7.8 0.00 0.00 0.00 72 1024.5
20240420154039 44 5 0.9 3.5 0.00 0.00 0.00 73 1024.5
20240420153533 44 285 0.9 3.5 0.00 0.00 0.00 73 1024.6
20240420153047 44 342 0.9 4.3 0.00 0.00 0.00 74 1024.6
20240420152520 44 281 1.7 5.2 0.00 0.00 0.00 74 1024.6
20240420152017 44 292 1.7 5.2 0.00 0.00 0.00 74 1024.6
20240420151553 44 5 0.9 4.3 0.00 0.00 0.00 74 1024.6
20240420151026 43 301 0.9 4.3 0.00 0.00 0.00 75 1024.6
20240420150541 43 327 0.9 3.5 0.00 0.00 0.00 75 1024.7
20240420150034 43 9 0.9 5.2 0.00 0.00 0.00 76 1024.7
20240420145528 43 268 0.9 5.2 0.00 0.00 0.00 76 1024.7
20240420145023 43 312 0.9 4.3 0.00 0.00 0.00 76 1024.6
20240420144537 43 315 0.9 5.2 0.00 0.00 0.00 76 1024.7
20240420144030 43 300 0.9 7.8 0.00 0.00 0.00 76 1024.7
20240420143529 43 290 2.6 7.8 0.00 0.00 0.00 76 1024.7
20240420143023 43 290 1.7 7.8 0.00 0.00 0.00 76 1024.7
20240420142516 43 290 1.7 7.0 0.00 0.00 0.00 76 1024.6
20240420142029 43 321 0.9 4.3 0.00 0.00 0.00 76 1024.6
20240420141523 43 256 0.9 7.0 0.00 0.00 0.00 76 1024.6
20240420141017 43 11 1.7 7.0 0.00 0.00 0.00 77 1024.6
20240420140530 42 313 0.9 2.6 0.00 0.00 0.00 77 1024.4
20240420140025 42 355 0.9 7.0 0.00 0.00 0.00 77 1024.5
20240420135522 42 257 0.0 4.3 0.00 0.00 0.00 77 1024.3
20240420135016 42 306 0.0 7.0 0.00 0.00 0.00 77 1024.3
20240420134530 42 310 1.7 7.0 0.00 0.00 0.00 78 1024.2
20240420134023 42 302 0.9 5.2 0.00 0.00 0.00 77 1024.2
20240420133517 42 292 0.9 4.3 0.00 0.00 0.00 77 1024.2
20240420133030 42 304 0.0 3.5 0.00 0.00 0.00 77 1024.0
20240420132524 42 273 0.9 3.5 0.00 0.00 0.00 78 1024.0
20240420132018 42 282 0.0 3.5 0.00 0.00 0.00 77 1024.0
20240420131515 42 288 0.9 3.5 0.00 0.00 0.00 77 1023.9
20240420131029 42 312 0.9 2.6 0.00 0.00 0.00 77 1023.9
20240420130521 42 320 0.0 3.5 0.00 0.00 0.00 77 1023.9
20240420130016 42 293 0.0 3.5 0.00 0.00 0.00 77 1023.9
20240420125529 42 317 0.9 2.6 0.00 0.00 0.00 76 1023.9
20240420125024 42 307 0.0 2.6 0.00 0.00 0.00 76 1023.8
20240420124517 42 207 0.0 2.6 0.00 0.00 0.00 76 1023.7
20240420124015 42 280 0.9 3.5 0.00 0.00 0.00 76 1023.6
20240420123529 42 312 0.9 4.3 0.00 0.00 0.00 76 1023.6
20240420123024 42 314 0.9 4.3 0.00 0.00 0.00 76 1023.6
20240420122518 42 320 1.7 3.5 0.00 0.00 0.00 75 1023.5
20240420122032 42 281 0.9 5.2 0.00 0.00 0.00 75 1023.5
20240420121525 43 318 1.7 7.8 0.00 0.00 0.00 74 1023.4
20240420121017 43 237 0.9 2.6 0.00 0.00 0.00 74 1023.4
20240420120531 43 120 0.9 2.6 0.00 0.00 0.00 73 1023.4
20240420120026 43 266 0.0 3.5 0.00 0.00 0.00 73 1023.3
20240420115543 43 294 0.0 2.6 0.00 0.00 0.00 73 1023.3
20240420115056 43 333 0.9 4.3 0.00 0.00 0.00 73 1023.2
20240420114527 44 341 0.0 4.3 0.00 0.00 0.00 73 1023.1
20240420114041 44 313 0.9 7.0 0.00 0.00 0.00 72 1023.1
20240420113533 44 321 0.9 7.0 0.00 0.00 0.00 72 1023.0
20240420113026 44 324 0.0 7.0 0.00 0.00 0.00 72 1022.9
20240420112520 44 184 1.7 7.0 0.00 0.00 0.00 72 1022.8
20240420112034 44 305 0.9 3.5 0.00 0.00 0.00 72 1022.7
20240420111527 44 5 0.0 2.6 0.00 0.00 0.00 72 1022.6
20240420111021 44 333 0.0 1.7 0.00 0.00 0.00 72 1022.6
20240420110538 44 290 0.0 1.7 0.00 0.00 0.00 71 1022.5
20240420110030 44 309 0.0 1.7 0.00 0.00 0.00 71 1022.5
20240420105524 44 284 0.0 1.7 0.00 0.00 0.00 71 1022.5
20240420105037 44 265 0.0 5.2 0.00 0.00 0.00 70 1022.4
20240420104530 44 311 0.9 5.2 0.00 0.00 0.00 70 1022.5
20240420104044 44 342 0.0 4.3 0.00 0.00 0.00 70 1022.4
20240420103517 45 310 0.9 4.3 0.00 0.00 0.00 69 1022.4
20240420103031 45 36 0.0 4.3 0.00 0.00 0.00 69 1022.6
20240420102525 45 309 1.7 4.3 0.00 0.00 0.00 68 1022.7
20240420102023 45 342 0.0 4.3 0.00 0.00 0.00 68 1022.6
20240420101516 45 223 0.9 4.3 0.00 0.00 0.00 67 1022.7
20240420101030 45 251 0.9 4.3 0.00 0.00 0.00 67 1022.5
20240420100544 46 267 0.9 5.2 0.00 0.00 0.00 66 1022.5
20240420100017 46 313 0.9 5.2 0.00 0.00 0.00 66 1022.5
20240420095531 46 225 2.6 6.1 0.00 0.00 0.00 66 1022.4
20240420095024 46 294 1.7 3.5 0.00 0.00 0.00 65 1022.3
20240420094518 46 346 0.0 2.6 0.00 0.00 0.00 65 1022.2
20240420094015 46 297 0.9 5.2 0.00 0.00 0.00 64 1022.1
20240420093529 47 289 1.7 6.1 0.00 0.00 0.00 64 1021.9
20240420093043 47 360 0.9 4.3 0.00 0.00 0.00 63 1021.9
20240420092536 47 302 0.9 6.1 0.00 0.00 0.00 62 1021.9
20240420092047 47 281 0.9 6.1 0.00 0.00 0.00 62 1021.9
20240420091520 48 285 0.9 3.5 0.00 0.00 0.00 62 1021.9
20240420091034 48 253 0.9 6.1 0.00 0.00 0.00 62 1021.8
20240420090528 48 256 0.0 6.1 0.00 0.00 0.00 61 1021.9
20240420090021 48 349 0.9 2.6 0.00 0.00 0.00 61 1021.8
20240420085515 49 304 0.9 2.6 0.00 0.00 0.00 61 1021.7
20240420085032 49 315 0.0 2.6 0.00 0.00 0.00 61 1021.8
20240420084527 49 300 0.0 6.1 0.00 0.00 0.00 60 1021.5
20240420084020 49 297 1.7 6.1 0.00 0.00 0.00 60 1021.5
20240420083514 49 305 0.9 3.5 0.00 0.00 0.00 60 1021.5
20240420083048 50 284 0.0 4.3 0.00 0.00 0.00 61 1021.5
20240420082522 50 298 0.0 2.6 0.00 0.00 0.00 61 1021.3
20240420082014 50 294 0.9 2.6 0.00 0.00 0.00 61 1021.4
20240420081529 50 287 0.9 2.6 0.00 0.00 0.00 60 1021.4
20240420081024 51 228 0.0 2.6 0.00 0.00 0.00 60 1021.5
20240420080517 51 306 0.0 2.6 0.00 0.00 0.00 60 1021.5
20240420080031 51 250 0.0 2.6 0.00 0.00 0.00 60 1021.5
20240420075526 51 316 0.0 1.7 0.00 0.00 0.00 60 1021.5
20240420075020 51 322 0.0 1.7 0.00 0.00 0.00 59 1021.5
20240420074553 51 336 0.0 1.7 0.00 0.00 0.00 59 1021.5
20240420074026 51 318 0.0 3.5 0.00 0.00 0.00 59 1021.5
20240420073541 51 333 0.0 2.6 0.00 0.00 0.00 59 1021.5
20240420073053 52 195 0.0 2.6 0.00 0.00 0.00 58 1021.5
20240420072525 52 311 0.9 2.6 0.00 0.00 0.00 58 1021.3
20240420072022 52 344 0.0 1.7 0.00 0.00 0.00 58 1021.3
20240420071515 52 327 0.0 2.6 0.00 0.00 0.00 58 1021.2
20240420071029 52 297 0.0 2.6 0.00 0.00 0.00 57 1021.2
20240420070523 52 343 0.0 3.5 0.00 0.00 0.00 57 1021.2
20240420070016 52 338 0.0 3.5 0.00 0.00 0.00 57 1021.2
20240420065531 52 292 0.0 3.5 0.00 0.00 0.00 56 1021.1
20240420065024 53 278 0.9 3.5 0.00 0.00 0.00 55 1021.1
20240420064518 53 312 0.0 1.7 0.00 0.00 0.00 54 1021.0
20240420064015 53 335 0.0 1.7 0.00 0.00 0.00 54 1020.9
20240420063530 54 355 0.0 1.7 0.00 0.00 0.00 53 1020.9
20240420063023 54 18 0.0 1.7 0.00 0.00 0.00 52 1020.9
20240420062537 54 337 0.0 1.7 0.00 0.00 0.00 51 1020.8
20240420062050 55 313 0.0 2.6 0.00 0.00 0.00 49 1020.7
20240420061524 55 67 0.0 2.6 0.00 0.00 0.00 49 1020.7
20240420061017 56 297 0.0 1.7 0.00 0.00 0.00 47 1020.5
20240420060530 56 128 0.0 0.9 0.00 0.00 0.00 47 1020.3
20240420060024 56 96 0.0 0.9 0.00 0.00 0.00 46 1020.5
20240420055542 57 49 0.0 0.0 0.00 0.00 0.00 46 1020.6
20240420055014 57 49 0.0 0.0 0.00 0.00 0.00 45 1020.6
20240420054528 57 59 0.0 2.6 0.00 0.00 0.00 45 1020.6
20240420054022 57 316 0.0 2.6 0.00 0.00 0.00 44 1020.6
20240420053515 57 355 0.0 0.9 0.00 0.00 0.00 44 1020.6
20240420053030 58 305 0.0 0.9 0.00 0.00 0.00 44 1020.6
20240420052524 58 343 0.0 0.9 0.00 0.00 0.00 43 1020.5
20240420052016 58 306 0.0 1.7 0.00 0.00 0.00 43 1020.4
20240420051514 58 355 0.0 1.7 0.00 0.00 0.00 42 1020.3
20240420051027 58 330 0.0 1.7 0.00 0.00 0.00 42 1020.3
20240420050520 58 323 0.0 1.7 0.00 0.00 0.00 41 1020.2
20240420050015 59 166 0.0 1.7 0.00 0.00 0.00 41 1020.2
20240420045528 59 210 0.0 1.7 0.00 0.00 0.00 41 1020.2
20240420045022 59 322 0.0 1.7 0.00 0.00 0.00 40 1020.1
20240420044516 59 325 0.9 2.6 0.00 0.00 0.00 41 1020.4
20240420044030 59 279 0.0 3.5 0.00 0.00 0.00 41 1019.9
20240420043527 59 281 0.9 3.5 0.00 0.00 0.00 40 1019.9
20240420043020 59 109 0.0 2.6 0.00 0.00 0.00 40 1019.7
20240420042554 59 318 0.0 0.0 0.00 0.00 0.00 39 1019.6
20240420042027 58 315 0.0 1.7 0.00 0.00 0.00 39 1019.6
20240420041521 58 355 0.0 1.7 0.00 0.00 0.00 38 1019.6
20240420041014 58 30 0.0 0.0 0.00 0.00 0.00 37 1019.6
20240420040528 58 23 0.0 0.0 0.00 0.00 0.00 37 1019.5
20240420040022 58 23 0.0 0.0 0.00 0.00 0.00 37 1019.4
20240420035520 58 282 0.0 0.9 0.00 0.00 0.00 37 1019.3
20240420035033 57 317 0.0 3.5 0.00 0.00 0.00 37 1019.2
20240420034526 56 332 0.0 6.1 0.00 0.00 0.00 38 1019.1
20240420034018 55 96 0.0 3.5 0.00 0.00 0.00 36 1019.2
20240420033551 53 143 0.0 3.5 0.00 0.00 0.00 35 1018.7
20240420033024 53 163 0.0 0.9 0.00 0.00 0.00 38 1018.6
20240420032517 52 268 0.0 0.0 0.00 0.00 0.00 40 1018.6
20240420032032 52 268 0.0 0.0 0.00 0.00 0.00 39 1018.3
20240420031525 52 268 0.0 0.0 0.00 0.00 0.00 40 1018.3
20240420031043 52 268 0.0 0.0 0.00 0.00 0.00 39 1018.2
20240420030515 52 268 0.0 0.0 0.00 0.00 0.00 39 1018.2
20240420030028 52 268 0.0 0.0 0.00 0.00 0.00 38 1018.2
20240420025541 52 268 0.0 0.0 0.00 0.00 0.00 37 1018.1
20240420025034 53 268 0.0 0.0 0.00 0.00 0.00 36 1018.1
20240420024527 53 268 0.0 0.0 0.00 0.00 0.00 36 1018.1
20240420024021 53 268 0.0 0.0 0.00 0.00 0.00 36 1018.1
20240420023515 54 268 0.0 0.0 0.00 0.00 0.00 35 1018.1
20240420023028 54 268 0.0 0.0 0.00 0.00 0.00 35 1018.0
20240420022526 54 268 0.0 0.0 0.00 0.00 0.00 34 1018.0
20240420022019 55 268 0.0 0.0 0.00 0.00 0.00 35 1017.9
20240420021533 55 268 0.0 0.0 0.00 0.00 0.00 33 1017.9
20240420021027 56 268 0.0 0.0 0.00 0.00 0.00 33 1017.8
20240420020519 57 268 0.0 0.0 0.00 0.00 0.00 32 1017.9
20240420020032 57 268 0.0 0.0 0.00 0.00 0.00 32 1017.8
20240420015526 58 268 0.0 0.0 0.00 0.00 0.00 32 1017.8
20240420015020 59 268 0.0 0.0 0.00 0.00 0.00 31 1017.9
20240420014516 59 268 0.0 0.0 0.00 0.00 0.00 31 1017.8
20240420014029 60 268 0.0 0.0 0.00 0.00 0.00 30 1017.7
20240420013520 61 268 0.0 0.0 0.00 0.00 0.00 28 1017.6
20240420013014 62 268 0.0 0.0 0.00 0.00 0.00 27 1017.6
20240420012528 62 268 0.0 0.0 0.00 0.00 0.00 27 1017.6
20240420012022 63 268 0.0 0.0 0.00 0.00 0.00 26 1017.5
20240420011515 63 268 0.0 0.0 0.00 0.00 0.00 26 1017.6
20240420011029 64 268 0.0 0.0 0.00 0.00 0.00 24 1017.5
20240420010522 64 268 0.0 0.0 0.00 0.00 0.00 23 1017.5
20240420010017 65 268 0.0 0.0 0.00 0.00 0.00 23 1017.4
20240420005550 65 268 0.0 3.5 0.00 0.00 0.00 22 1017.4
20240420005024 65 296 0.0 3.5 0.00 0.00 0.00 22 1017.4
20240420004517 65 295 0.0 1.7 0.00 0.00 0.00 21 1017.4
20240420004031 66 59 0.0 0.9 0.00 0.00 0.00 22 1017.4
20240420003524 66 350 0.0 0.9 0.00 0.00 0.00 22 1017.4
20240420003017 67 35 0.0 1.7 0.00 0.00 0.00 21 1017.4
20240420002552 67 83 0.0 1.7 0.00 0.00 0.00 20 1017.5
20240420002024 68 25 0.0 2.6 0.00 0.00 0.00 21 1017.5
20240420001522 68 125 0.9 4.3 0.00 0.00 0.00 20 1017.4
20240420001015 68 280 0.9 2.6 0.00 0.00 0.00 20 1017.4
20240420000528 69 355 0.0 2.6 0.00 0.00 0.00 20 1017.5
20240420000043 69 140 0.0 2.6 0.00 0.00 0.00 20 1017.4
20240419235515 69 284 0.0 2.6 0.00 0.00 0.00 20 1017.4
20240419235028 69 288 0.9 2.6 0.00 0.00 0.00 19 1017.4
20240419234522 70 145 0.0 3.5 0.00 0.00 0.00 19 1017.4
20240419234015 70 327 0.9 4.3 0.00 0.00 0.00 19 1017.5
20240419233533 70 26 0.9 4.3 0.00 0.00 0.00 19 1017.6
20240419233026 70 349 0.9 2.6 0.00 0.00 0.00 19 1017.5
20240419232520 70 340 0.9 3.5 0.00 0.00 0.00 19 1017.5
20240419232034 71 164 0.0 5.2 0.00 0.00 0.00 19 1017.4
20240419231527 70 153 1.7 7.0 0.00 0.00 0.00 19 1017.4
20240419231021 70 348 1.7 7.8 0.00 0.00 0.00 18 1017.6
20240419230555 71 244 1.7 7.8 0.00 0.00 0.00 17 1017.5
20240419230027 70 107 0.9 7.0 0.00 0.00 0.00 19 1017.3
20240419225524 71 333 1.7 7.0 0.00 0.00 0.00 18 1017.5
20240419225038 71 146 0.9 5.2 0.00 0.00 0.00 18 1017.5
20240419224531 70 71 0.9 4.3 0.00 0.00 0.00 17 1017.6
20240419224025 70 135 0.9 9.6 0.00 0.00 0.00 18 1017.6
20240419223518 71 328 2.6 9.6 0.00 0.00 0.00 16 1017.8
20240419223032 71 285 1.7 7.0 0.00 0.00 0.00 16 1017.7
20240419222526 72 11 0.9 5.2 0.00 0.00 0.00 17 1017.7
20240419222019 72 298 0.9 5.2 0.00 0.00 0.00 17 1017.6
20240419221532 71 318 0.9 4.3 0.00 0.00 0.00 17 1017.6
20240419221045 71 286 0.9 6.1 0.00 0.00 0.00 17 1017.7
20240419220522 72 157 1.7 6.1 0.00 0.00 0.00 16 1017.7
20240419220015 72 142 0.9 4.3 0.00 0.00 0.00 16 1017.8
20240419215529 71 360 0.0 5.2 0.00 0.00 0.00 17 1017.9
20240419215023 71 327 0.9 11.3 0.00 0.00 0.00 16 1018.0
20240419214517 71 251 1.7 8.7 0.00 0.00 0.00 15 1018.1
20240419214031 71 142 1.7 8.7 0.00 0.00 0.00 17 1018.1
20240419213524 71 281 1.7 8.7 0.00 0.00 0.00 17 1018.0
20240419213016 71 80 0.9 8.7 0.00 0.00 0.00 15 1018.1
20240419212530 71 280 1.7 8.7 0.00 0.00 0.00 16 1018.3
20240419212026 71 49 1.7 7.8 0.00 0.00 0.00 16 1018.3
20240419211519 71 5 2.6 7.8 0.00 0.00 0.00 16 1018.5
20240419211033 71 67 0.9 7.0 0.00 0.00 0.00 17 1018.5
20240419210547 71 211 1.7 7.0 0.00 0.00 0.00 16 1018.5
20240419210018 71 43 0.9 4.3 0.00 0.00 0.00 16 1018.6
20240419205531 70 98 0.9 5.2 0.00 0.00 0.00 16 1018.7
20240419205025 70 5 1.7 7.8 0.00 0.00 0.00 23 1018.8
20240419204518 69 82 0.9 9.6 0.00 0.00 0.00 23 1018.8
20240419204033 69 303 1.7 9.6 0.00 0.00 0.00 19 1018.8
20240419203525 69 33 0.9 8.7 0.00 0.00 0.00 17 1018.9
20240419203018 69 102 0.9 8.7 0.00 0.00 0.00 25 1018.9
20240419202531 69 327 0.9 8.7 0.00 0.00 0.00 25 1019.0
20240419202025 68 56 0.9 7.0 0.00 0.00 0.00 24 1019.0
20240419201518 68 228 1.7 7.0 0.00 0.00 0.00 25 1018.9
20240419201030 68 304 0.9 7.0 0.00 0.00 0.00 27 1019.0
20240419200523 67 293 1.7 8.7 0.00 0.00 0.00 26 1019.1
20240419200020 68 298 0.9 3.5 0.00 0.00 0.00 27 1019.1
20240419195531 67 91 0.9 7.0 0.00 0.00 0.00 27 1019.1
20240419195025 67 173 1.7 7.0 0.00 0.00 0.00 28 1019.3
20240419194518 67 281 1.7 7.0 0.00 0.00 0.00 28 1019.3
20240419194032 67 65 0.9 7.0 0.00 0.00 0.00 30 1019.3
20240419193524 67 275 0.9 7.0 0.00 0.00 0.00 29 1019.3
20240419193017 67 5 1.7 6.1 0.00 0.00 0.00 28 1019.4
20240419192551 67 346 0.9 6.1 0.00 0.00 0.00 30 1019.4
20240419192043 67 95 0.9 5.2 0.00 0.00 0.00 31 1019.4
20240419191519 66 344 0.9 4.3 0.00 0.00 0.00 31 1019.4
20240419191033 66 333 0.9 4.3 0.00 0.00 0.00 32 1019.5
20240419190525 65 318 0.9 4.3 0.00 0.00 0.00 33 1019.5
20240419190018 65 267 0.9 6.1 0.00 0.00 0.00 33 1019.7
20240419185552 64 187 2.6 7.8 0.00 0.00 0.00 35 1019.9
20240419185023 64 28 0.9 7.8 0.00 0.00 0.00 38 1019.9
20240419184515 63 187 2.6 6.1 0.00 0.00 0.00 38 1020.1
20240419184028 62 75 0.0 2.6 0.00 0.00 0.00 40 1020.3
20240419183521 61 140 0.9 6.1 0.00 0.00 0.00 39 1020.4
20240419183015 62 287 1.7 6.1 0.00 0.00 0.00 39 1020.7
20240419182529 61 307 0.0 3.5 0.00 0.00 0.00 41 1020.6
20240419182028 60 98 0.9 8.7 0.00 0.00 0.00 41 1020.8
20240419181522 60 111 1.7 10.4 0.00 0.00 0.00 42 1020.7
20240419181036 59 117 2.6 10.4 0.00 0.00 0.00 43 1020.8
20240419180530 59 229 0.9 7.8 0.00 0.00 0.00 44 1021.1
20240419180024 58 160 0.9 7.0 0.00 0.00 0.00 45 1021.0
20240419175518 58 21 3.5 7.0 0.00 0.00 0.00 44 1021.1
20240419175032 57 134 0.0 6.1 0.00 0.00 0.00 46 1021.2
20240419174527 57 239 0.9 6.1 0.00 0.00 0.00 47 1021.4
20240419174045 57 107 0.9 7.0 0.00 0.00 0.00 48 1021.3
20240419173518 56 119 0.9 6.1 0.00 0.00 0.00 48 1021.4
20240419173032 56 104 1.7 6.1 0.00 0.00 0.00 48 1021.5
20240419172547 56 301 0.9 7.8 0.00 0.00 0.00 49 1021.6
20240419172021 55 157 0.0 7.0 0.00 0.00 0.00 50 1021.7
20240419171515 55 350 0.0 3.5 0.00 0.00 0.00 50 1021.8